sat.trackr.live / text

‹ back to catalog

QIANFAN-117

NORAD 68644 · 2026-075J

PAYLOAD ACTIVE UNKNOWN

§ Identity

Operator
Country
PRC
Launch date
2026-04-07
Launch site
WSC
Launch vehicle
Mass (kg)
RCS (m²)

External: N2YO · Heavens-Above · Gunter

§ Orbital elements

Epoch: 2026-05-24T18:13:28.169184Z

Period
105.33 min
Inclination
88.9879°
Eccentricity
0.0011443
Mean motion
13.67076666 rev/d
Perigee alt
1,001.6 km
Apogee alt
1,018.5 km
Semi-major
7,388.2 km
B*
3.8556e-5
RAAN
323.4132°
Arg perigee
74.1908°
Mean anomaly
286.0513°
Rev number
663

§ Raw data

QIANFAN-1171 68644U 26075J   26144.75935381  .00000045  00000+0  38556-4 0  99952 68644  88.9879 323.4132 0011443  74.1908 286.0513 13.67076666  6637

JSON: /api/v1/satellites/68644 · /tle

For live sub-satellite position, see the globe view (requires WebGL).

§ Visibility from observer

Set your observer location to see the next 7 days of passes ≥ 10°. The values pass through the URL so the page stays shareable.

No JS? Fill the form by hand. The geolocation button needs JavaScript.